Regional Weather Roundup
Issued by NWS

Home | Current Version | Previous Version | Text Only | Print | Product List | Glossary Off
Versions: 1 2 3 4 5 6 7 8 9 10 11 12 13 14 15 16 17 18 19 20 21 22 23 24 25 26 27 28 29 30 31 32 33 34 35 36 37 38 39 40 41 42 43 44 45 46 47 48 49 50

504
ASUS45 KABQ 192101
RWRNM
NEW MEXICO REGIONAL WEATHER ROUNDUP
NATIONAL WEATHER SERVICE ALBUQUERQUE NM
300 PM MDT TUE SEP 19 2017

NOTE: "FAIR" MEANS FEW OR NO CLOUDS BELOW 12,000 FEET AGL WITH NO
       SIGNIFICANT WEATHER OR OBSTRUCTIONS TO VISION.

      THIS PRODUCT IS RELEASED AS TWO VERSIONS.  ONE VERSION NEAR
      THE TOP OF THE HOUR CONTAINING PRELIMINARY DATA FROM ALBUQUERQUE
      AND OTHER STATIONS.  A FINAL VERSION WITH ADDITIONAL DATA IS
      ISSUED ABOUT 10 MINUTES AFTER THE HOUR.

NMZ501-503-504-510>518-192200-
NORTHWEST PLATEAU/NORTHCENTRAL MOUNTAINS

CITY           SKY/WX    TMP DP  RH WIND       PRES   REMARKS
FARMINGTON     FAIR      81  17   9 NW12G17   29.90F
LOS ALAMOS     FAIR      76  12   8 W23G37    30.04F
SANTA FE       FAIR      82  14   8 W23G36    29.98F
TAOS           FAIR      76  16  10 W31G41    30.02F
ANGEL FIRE     FAIR      66  29  25 SW20G31   30.08F

$$
NMZ402-403-502-505>509-192200-
WESTCENTRAL MOUNTAINS/SOUTHWEST MOUNTAINS

CITY           SKY/WX    TMP DP  RH WIND       PRES   REMARKS
GALLUP         FAIR      79  16   9 W29G38    30.03F
GRANTS         FAIR      80  19  10 W17G29    30.05F
SILVER CITY    FAIR      83  41  23 W18G31    30.05F

$$
NMZ407-409-411-412-192200-
SOUTHERN DESERTS

CITY           SKY/WX    TMP DP  RH WIND       PRES   REMARKS
DEMING         FAIR      89  50  26 W21G28    29.96F
LAS CRUCES     FAIR      90  44  20 W20G29    29.97F
HOLLOMAN AFB     N/A    N/A N/A N/A MISG      29.94F
ALAMOGORDO     FAIR      90  39  17 W18       29.93F
T OR C         FAIR      90  37  15 SW15G26   29.95F

$$
NMZ519>523-192200-
CENTRAL VALLEYS/CENTRAL HIGHLANDS

CITY           SKY/WX    TMP DP  RH WIND       PRES   REMARKS
ALBUQUERQUE    FAIR      86  14   7 W20G28    29.95F
DOUBLE EAGLE   MOSUNNY   84  18   8 W24G35    29.99F
CLINES CORNERS FAIR      77  27  15 W31G44    30.03F
BELEN          FAIR      90  23   9 W14G22    29.93F
SOCORRO        FAIR      91  28  10 CALM      29.91F

$$
NMZ524>526-539-540-192200-
SOUTHCENTRAL MOUNTAINS

CITY           SKY/WX    TMP DP  RH WIND       PRES   REMARKS
RUIDOSO        FAIR      77  39  25 W14G26    30.10F

$$
NMZ527>531-192200-
NORTHEAST HIGHLANDS/NORTHEAST PLAINS

CITY           SKY/WX    TMP DP  RH WIND       PRES   REMARKS
LAS VEGAS      FAIR      74  26  16 SW20G25   29.98F
RATON          FAIR      76  27  16 SW21G29   29.86F
CLAYTON        FAIR      86  21   9 SW17G35   29.79F

$$
NMZ532>537-192200-
EASTCENTRAL PLAINS

CITY           SKY/WX    TMP DP  RH WIND       PRES   REMARKS
SANTA ROSA     FAIR      88  32  13 W23G35    29.85F
TUCUMCARI      FAIR      94  27   9 W25G38    29.77F
CANNON AFB     FAIR      91  37  15 SW29      29.86F
CLOVIS AIRPORT FAIR      90  43  19 SW23G35   29.86F

$$
NMZ028-029-538-192200-
SOUTHEAST PLAINS

CITY           SKY/WX    TMP DP  RH WIND       PRES   REMARKS
ROSWELL        FAIR      96  41  15 W20G33    29.82F
ARTESIA        FAIR      95  45  17 SW20G30   29.84F
CARLSBAD       FAIR      97  46  17 SW16G23   29.83F
HOBBS          MOSUNNY   93  45  18 SW13G24   29.86F


$$




USA.gov is the U.S. government's official web portal to all federal, state and local government web resources and services.